Location: Unspecified
(42.9300°N, 71.1866°W)
Time: 01:36:01
(UTC-04:00)

Okean 3 - Visible Passes

Search period start: 25 October 2014 00:00
Search period end: 03 November 2014 23:00
Orbit: 584 x 608 km, 82.5° (Epoch: 24 October)

Date Brightness Start Highest point End Pass type
(mag) Time Alt. Az. Time Alt. Az. Time Alt. Az.
29 Oct 6.5 06:30:49 10° NE 06:33:03 14° ENE 06:35:16 10° E visible
30 Oct 6.2 06:40:07 10° NNE 06:43:22 21° ENE 06:46:34 10° ESE visible
03 Nov 6.7 04:44:49 10° NE 04:46:09 11° ENE 04:47:28 10° E visible
